World > North America > United States > Oregon > Carlton

Hourly Carlton, OR Regional Weather

Feedback E-mail the Weather

Quick WX

Carlton, OR Weather Maps

°F °C°F °C
Carlton Weather Map
UTC Time: 8/8/2022, 03:50
Your Time:

Carlton, OR Regional Weather

Expires:202208080400;;652640
ASUS46 KPQR 080310
RWROR 

OREGON REGIONAL WEATHER ROUNDUP
NATIONAL WEATHER SERVICE PORTLAND OR
800 PM PDT SUN AUG 07 2022

NOTE: "FAIR" INDICATES FEW OR NO CLOUDS BELOW 12,000 FEET WITH
NO SIGNIFICANT WEATHER AND/OR OBSTRUCTIONS TO VISIBILITY.


ORZ001>013-080400-
NORTHWEST OREGON

  
CITY           SKY/WX    TMP DP  RH WIND       PRES   REMARKS
ASTORIA        CLEAR     60  53  77 SW9       29.96R                  
TILLAMOOK      CLEAR     59  52  77 S7        30.01R                  
NEWPORT        FOG       54  54 100 S10G17    30.06R VSB 1            
FLORENCE       CLOUDY    57  57 100 VRB5      30.04S FOG              
PORTLAND       PTCLDY    91  55  29 NW7       29.86R                  
VANCOUVER WA   CLEAR     93  51  23 VRB7      29.86S HX  90           
SCAPPOOSE      CLEAR     92  52  25 NW5       29.86R                  
HILLSBORO      CLEAR     92  51  24 NE6       29.87R                  
AURORA         CLEAR     91  48  22 CALM      29.88R                  
MCMINNVILLE    CLEAR     83  59  44 SW12      29.87R                  
SALEM          CLEAR     88  54  31 W9        29.87R                  
CORVALLIS      CLEAR     74  54  49 NW22G28   29.92R                  
EUGENE         PTCLDY    77  56  48 SW13      29.93R                  
CRESWELL       CLEAR     81  55  41 W7        29.93R                  
$$


SKY/WX - Weather  TMP - Temperature  DP - Dew Point  RH - Humidity
WIND - Wind Direction/Speed PRES - Barometric Pressure VSB - Visibility
WCI - Wind Chill Index E13G22 Wind - East Wind 13 mph/Gusts of 22 mph

Trending Headlines

Carlton Radar Loop



Carlton Quick Facts


National Two Day Weather Forecast


E-mail the Carlton Weather Forecast

Voice your opinion or tell us about page issues...